To NAV CANADA Home Page Login to a new session Search on AWWS site Feedback and Comments Disclaimer Vers la page française équivalente Tips FAQ What's new on the site To the Forecasts and Observations / NOTAM section To "File a Flight Plan" website Publications and other links Update of the User's profile FIC Telephone Numbers My Weather Data Folder Route Weather Data Regional Weather Data Local Weather Data To the Forecasts and Observations / NOTAM section
Request Generated 08/25/2016 at 18:21:15 UTC . Weather information available at that time is displayed.

METAR/TAF

ST. LEONARD/NB    

LWIS CYSL 251800Z AUTO 23007G17KT 26/19 A2985=
LWIS CYSL 251700Z AUTO 22012G18KT 26/18 A2986=
LWIS CYSL 251600Z AUTO 21010KT 25/18 A2987=

CYSL - No TAF is issued for this station

Your time UTC time
Weather data provided by Environment Canada and NAV CANADA